Weather History for LGKZ - September, 2013

Change the Weather History Date:

Friday, September 20, 2013

  Actual Average Record
Temperature  
Mean Temperature 64 °F -  
Max Temperature 73 °F - - ()
Min Temperature 55 °F - - ()
Degree Days  
Heating Degree Days 1    
Growing Degree Days 14 (Base 50)    
Moisture  
Dew Point 43 °F    
Average Humidity 50    
Maximum Humidity 67    
Minimum Humidity 33    
Precipitation  
Precipitation 0.00 in - - ()
Sea Level Pressure  
Sea Level Pressure 29.94 in    
Wind  
Wind Speed 9 mph ()    
Max Wind Speed 18 mph    
Max Gust Speed 28 mph    
Visibility 6.2 miles    
Events Rain    
T = Trace of Precipitation, MM = Missing Value Source: Averaged Metar Reports

Daily Weather History Graph

Daily Weather History Graph

Search for Another Location

Airport or City:

Trip Planner

Search our weather history database for the weather conditions in past years. The results will help you decide how hot, cold, wet, or windy it might be!

Date:

Astronomy

Sep. 20, 2013 Rise Set
Actual Time 7:18 AM EEST 7:33 PM EEST
Civil Twilight 6:51 AM EEST 8:00 PM EEST
Nautical Twilight 6:19 AM EEST 8:32 PM EEST
Astronomical Twilight 5:46 AM EEST 9:04 PM EEST
Moon 7:55 PM EEST (9/20) 8:12 AM EEST (9/20)
Length of Visible Light 13h 09m
Length of Day
12h 14m
Full, 99% of the Moon is Illuminated
Sep 20
Full
Sep 27
Last Quarter
Oct 5
New
Oct 12
First Quarter
Oct 19
Full

Hourly Weather History & Observations

Time (EEST) Temp. Dew Point Humidity Pressure Visibility Wind Dir Wind Speed Gust Speed Precip Events Conditions
12:20 AM 64.4 °F 44.6 °F 49% 29.83 in - WSW 4.6 mph - N/A   Unknown
12:50 AM 64.4 °F 44.6 °F 49% 29.83 in - WSW 4.6 mph - N/A   Unknown
1:20 AM 64.4 °F 44.6 °F 49% 29.86 in - WSW 4.6 mph - N/A   Unknown
1:50 AM 64.4 °F 46.4 °F 52% 29.86 in - WSW 4.6 mph - N/A   Unknown
2:20 AM 62.6 °F 46.4 °F 55% 29.86 in - WSW 5.8 mph - N/A   Unknown
2:50 AM 60.8 °F 46.4 °F 59% 29.86 in - WSW 11.5 mph - N/A   Unknown
3:20 AM 60.8 °F 48.2 °F 63% 29.86 in - WSW 11.5 mph - N/A   Unknown
3:50 AM 59.0 °F 48.2 °F 67% 29.86 in - WSW 13.8 mph - N/A   Unknown
4:20 AM 59.0 °F 48.2 °F 67% 29.89 in - WSW 13.8 mph - N/A   Unknown
4:50 AM 59.0 °F 46.4 °F 63% 29.89 in - WSW 15.0 mph - N/A   Unknown
5:20 AM 57.2 °F 46.4 °F 67% 29.89 in - WSW 13.8 mph - N/A   Unknown
5:50 AM 57.2 °F 44.6 °F 63% 29.89 in - WSW 12.7 mph 24.2 mph N/A   Unknown
6:20 AM 57.2 °F 44.6 °F 63% 29.92 in - WSW 12.7 mph 25.3 mph N/A   Unknown
6:50 AM 57.2 °F 44.6 °F 63% 29.92 in - WSW 13.8 mph - N/A Rain Light Rain
7:20 AM 55.4 °F 42.8 °F 63% 29.92 in - WSW 13.8 mph - N/A   Unknown
7:50 AM 55.4 °F 42.8 °F 63% 29.95 in - WSW 16.1 mph - N/A Rain Light Rain
8:20 AM 55.4 °F 41.0 °F 58% 29.95 in - WSW 18.4 mph - N/A   Unknown
8:50 AM 57.2 °F 41.0 °F 55% 29.95 in - WSW 18.4 mph - N/A   Unknown
9:20 AM 57.2 °F 41.0 °F 55% 29.95 in - WSW 16.1 mph - N/A   Unknown
9:50 AM 60.8 °F 41.0 °F 48% 29.95 in - WSW 15.0 mph - N/A   Unknown
10:20 AM 60.8 °F 41.0 °F 48% 29.95 in - WSW 17.3 mph - N/A   Unknown
10:50 AM 62.6 °F 42.8 °F 48% 29.98 in - WSW 16.1 mph 27.6 mph N/A   Unknown
11:20 AM 62.6 °F 41.0 °F 45% 29.98 in - WSW 15.0 mph - N/A   Unknown
11:50 AM 64.4 °F 41.0 °F 42% 29.98 in - WSW 15.0 mph - N/A   Unknown
12:20 PM 66.2 °F 41.0 °F 40% 29.98 in - WSW 12.7 mph - N/A   Unknown
12:50 PM 68.0 °F 41.0 °F 37% 29.98 in - WSW 13.8 mph - N/A   Unknown
1:20 PM 68.0 °F 39.2 °F 35% 29.98 in - WSW 11.5 mph - N/A   Unknown
1:50 PM 68.0 °F 41.0 °F 37% 29.98 in - WSW 11.5 mph - N/A   Unknown
2:20 PM 69.8 °F 41.0 °F 35% 29.98 in - WSW 10.4 mph - N/A   Unknown
2:50 PM 71.6 °F 41.0 °F 33% 29.95 in 6.2 mi WSW 8.1 mph - N/A   Scattered Clouds
3:50 PM 73.4 °F 42.8 °F 33% 29.95 in 6.2 mi WSW 6.9 mph - N/A   Scattered Clouds
4:50 PM 73.4 °F 42.8 °F 33% 29.95 in 6.2 mi WSW 4.6 mph - N/A   Scattered Clouds
5:50 PM 69.8 °F 41.0 °F 35% 29.95 in 6.2 mi WSW 11.5 mph - N/A   Mostly Cloudy
6:50 PM 66.2 °F 44.6 °F 46% 29.98 in 6.2 mi WSW 8.1 mph - N/A   Mostly Cloudy
7:50 PM 66.2 °F 42.8 °F 43% 29.98 in 6.2 mi WSW 5.8 mph - N/A   Mostly Cloudy
8:50 PM 64.4 °F 42.8 °F 45% 30.01 in 6.2 mi Calm Calm - N/A   Mostly Cloudy
9:20 PM 64.4 °F 42.8 °F 45% 30.01 in - Variable 2.3 mph - N/A   Unknown
9:50 PM 64.4 °F 42.8 °F 45% 30.01 in - Variable 2.3 mph - N/A   Unknown
10:20 PM 64.4 °F 42.8 °F 45% 30.04 in - Variable 2.3 mph - N/A   Unknown
10:50 PM 64.4 °F 42.8 °F 45% 30.04 in - WSW 5.8 mph - N/A   Unknown
11:20 PM 60.8 °F 44.6 °F 55% 30.04 in - WSW 4.6 mph - N/A   Unknown
11:50 PM 60.8 °F 42.8 °F 52% 30.04 in - WSW 6.9 mph - N/A   Unknown